User: anonymous   Login
Location: Владивосток
(43.1151°N, 131.8856°E)
Time: 02:19:40
(UTC+10:00)
Language:

FENGYUN 1C DEB - Orbit

View from above orbital plane
View from above orbital plane
View from above satellite
View from above satellite

Ground track
Ground track

The orbit data is extracted from the following two-line orbital elements,

1 30759U 99025ATV 22333.51109895  .00002784  00000-0  10916-2 0  9990
2 30759  99.3074 332.4717 0014214 159.7067 359.4769 14.30244017816860
Epoch (UTC): 29 November 2022 12:15:58
Eccentricity: 0.0014214
inclination: 99.3074°
perigee height: 781 km
apogee height: 801 km
right ascension of ascending node: 332.4717°
argument of perigee: 159.7067°
revolutions per day: 14.30244017
mean anomaly at epoch: 359.4769°
orbit number at epoch: 81686

The dashed part of the orbit path shows where the satellite is in the earth's shadow,  

DLR